SCP
0 0 0 0 0 0 0 0 0 0 0 0 0 0 0 0 0 0 0 0 1 1 1 1 1 1 1 1 1 1 1 0 0 0 0 0 0 0 0 0 0 0 0 0
0 0 0 0 0 0 0 0 0 0 0 0 0 0 0 0 0 0 0 1 1 1 1 1 1 1 1 1 1 1 1 1 1 0 0 0 0 0 0 0 0 0 0 0
0 0 0 0 0 0 0 0 0 0 0 0 0 0 0 0 0 0 1 1 1 1 1 2 2 1 1 1 1 1 1 1 1 1 0 0 0 0 0 0 0 0 0 0
0 0 0 0 0 0 0 0 0 0 0 0 0 0 0 0 1 1 1 1 1 1 1 2 2 2 2 1 1 1 1 1 1 1 1 1 0 0 0 0 0 0 0 0
0 0 0 0 0 0 0 0 0 0 0 0 0 0 0 1 1 1 1 1 1 1 1 2 2 2 2 2 1 1 1 1 1 1 1 1 1 1 1 1 0 0 0 0
0 0 0 0 0 0 0 0 0 0 0 0 0 0 1 1 1 1 1 1 1 1 1 2 2 2 2 2 2 1 1 1 1 1 1 1 1 1 1 1 1 0 0 0
0 0 0 0 0 0 0 0 0 0 0 0 1 1 1 1 1 1 1 1 1 2 2 3 3 3 3 2 2 2 1 1 1 1 1 1 1 1 1 1 1 1 1 0
0 0 0 0 0 0 0 1 1 1 1 1 1 1 1 1 1 1 1 1 2 2 3 3 4 4 3 3 2 2 2 2 1 1 1 1 1 1 1 1 1 1 1 0
0 0 0 0 0 0 0 1 1 1 1 1 1 1 1 1 1 1 1 1 2 2 3 3 4 4 4 3 3 3 2 2 2 2 1 1 1 1 1 1 1 1 0 0
0 0 0 0 0 0 0 0 0 0 0 0 1 1 1 1 1 1 1 1 2 2 3 3 3 4 4 3 3 3 2 2 2 2 2 1 1 1 1 1 0 0 0 0
0 0 0 0 0 0 0 0 0 0 0 0 0 1 1 1 1 1 1 2 2 2 3 3 3 3 3 3 3 3 2 2 2 2 1 1 1 1 1 0 0 0 0 0
0 0 0 0 0 0 0 0 0 0 0 0 0 1 1 1 1 1 1 2 2 2 2 2 2 2 3 3 3 3 2 2 1 1 1 1 1 1 0 0 0 0 0 0
0 0 0 0 0 0 0 0 0 0 0 0 1 1 1 1 1 1 1 1 2 2 2 2 2 2 2 2 2 2 2 1 1 1 1 1 1 0 0 0 0 0 0 0
0 0 0 0 0 0 0 0 0 0 0 0 0 0 1 1 1 1 1 1 1 1 1 1 1 1 1 2 2 1 1 1 1 1 1 1 0 0 0 0 0 0 0 0
0 0 0 0 0 0 0 0 0 0 0 0 0 0 0 1 1 1 1 1 1 1 1 1 1 1 1 1 1 1 1 1 0 0 0 0 0 0 0 0 0 0 0 0
0 0 0 0 0 0 0 0 0 0 0 0 0 0 0 1 1 1 1 1 0 1 1 1 1 1 1 1 1 1 0 0 0 0 0 0 0 0 0 0 0 0 0 0
0 0 0 0 0 0 0 0 0 0 0 0 0 0 0 0 0 0 0 0 0 1 1 1 1 1 1 1 1 0 0 0 0 0 0 0 0 0 0 0 0 0 0 0
0 0 0 0 0 0 0 0 0 0 0 0 0 0 0 0 0 0 0 0 0 0 1 1 1 1 1 0 0 0 0 0 0 0 0 0 0 0 0 0 0 0 0 0
0 0 0 0 0 0 0 0 0 0 0 0 0 0 0 0 0 0 0 0 0 0 0 0 0 0 0 0 0 0 0 0 0 0 0 0 0 0 0 0 0 0 0 0
0 0 0 0 0 0 0 0 0 0 0 0 0 0 0 0 0 0 0 0 0 0 0 0 0 0 0 0 0 0 0 0 0 0 0 0 0 0 0 0 0 0 0 0
0 0 0 0 0 0 0 0 0 0 0 0 0 0 0 0 0 0 0 0 0 0 0 0 0 0 0 0 0 0 0 0 0 0 0 0 0 0 0 0 0 0 0 0
0 0 0 0 0 0 0 0 0 0 0 0 0 0 0 0 0 0 0 0 0 0 0 0 0 0 0 0 0 0 0 0 0 0 0 0 0 0 0 0 0 0 0 0
0 0 0 0 0 0 0 0 0 0 0 0 0 0 0 0 0 0 0 0 0 0 0 0 0 0 0 0 0 0 0 0 0 0 0 0 0 0 0 0 0 0 0 0
0 0 0 0 0 0 0 0 0 0 0 0 0 0 0 0 0 0 0 0 0 0 0 0 0 0 0 0 0 0 0 0 0 0 0 0 0 0 0 0 0 0 0 0
0 0 0 0 0 0 0 0 0 0 0 0 0 0 0 0 0 0 0 0 0 0 0 0 0 0 0 0 0 0 0 0 0 0 0 0 0 0 0 0 0 0 0 0
0 0 0 0 0 0 0 0 0 0 0 0 0 0 0 0 0 0 0 0 0 0 0 0 0 0 0 0 0 0 0 0 0 0 0 0 0 0 0 0 0 0 0 0
0 0 0 0 0 0 0 0 0 0 0 0 0 0 0 0 0 0 0 0 0 0 0 0 0 0 0 0 0 0 0 0 0 0 0 0 0 0 0 0 0 0 0 0
Wind_Speed
10 6 7 8 13 13 13 13 10 6 2 4 5 7 9 12 15 16 16 15 14 14 13 13 13 12 12 12 11 11 11 10 9 9 8 7 7 7 6 6 6 5 5 4
10 11 10 10 13 16 17 13 11 8 4 6 9 9 9 11 14 15 16 16 15 15 14 14 13 13 12 11 11 11 11 10 10 9 9 8 7 7 7 6 5 5 5 4
11 10 9 11 14 16 13 10 8 6 2 4 7 7 8 10 12 13 16 16 15 15 14 12 13 12 12 11 11 11 10 10 10 10 9 9 9 8 7 7 6 5 5 5
9 7 10 7 8 9 7 6 4 3 2 3 4 5 7 8 9 12 13 15 15 14 14 13 12 12 11 12 12 11 11 11 11 10 10 9 8 8 8 6 6 6 6 6
8 8 8 8 8 6 3 4 4 2 1 2 1 3 4 4 5 6 9 11 12 14 15 14 13 13 12 13 13 13 12 11 11 11 10 10 9 8 7 6 6 6 6 6
8 7 6 4 6 10 5 4 2 1 1 2 1 2 2 2 3 5 5 7 10 13 14 14 14 13 13 14 13 13 13 11 10 10 10 10 9 8 7 6 6 6 6 6
10 9 4 2 6 8 4 1 3 4 3 2 3 2 3 3 2 3 4 5 7 9 9 11 13 13 13 13 12 12 11 10 10 10 9 8 7 7 6 7 7 7 6 6
6 8 2 6 5 3 3 4 4 5 4 3 3 4 4 3 3 2 4 5 7 6 7 8 11 12 12 10 9 9 9 10 9 9 10 9 7 7 6 7 7 6 6 6
1 0 3 4 1 3 5 4 4 5 5 4 4 4 5 4 3 2 2 4 5 6 7 7 9 10 11 9 9 9 9 8 8 8 7 6 8 8 7 6 7 7 7 7
0 2 4 5 6 6 6 5 5 5 6 6 5 4 5 5 4 3 2 1 3 5 7 6 6 7 7 7 8 8 8 8 7 7 7 6 5 7 7 7 8 7 6 5
1 1 2 4 5 6 5 5 4 5 6 6 6 5 5 5 4 3 3 3 3 4 5 6 6 6 6 6 7 7 7 7 7 7 7 6 6 5 6 5 4 4 3 2
1 0 1 1 2 3 3 3 5 6 6 6 7 6 6 6 5 4 4 4 4 5 5 6 6 5 4 5 6 7 7 7 7 6 6 6 6 5 5 4 4 4 3 2
2 1 1 3 2 1 2 5 6 6 6 7 7 6 6 7 7 6 5 5 5 5 5 6 6 5 3 4 4 5 4 4 3 4 4 4 4 4 4 4 4 5 6 7
2 3 4 4 4 5 6 7 7 8 8 8 7 7 7 7 8 7 7 6 6 6 6 6 6 5 4 4 4 3 3 3 2 1 1 2 2 3 3 3 4 4 7 11
4 4 4 5 6 6 6 6 7 8 8 8 7 7 7 7 7 7 7 6 7 6 6 6 6 5 4 4 4 3 2 1 2 1 1 1 2 2 3 3 2 2 3 4
5 5 6 6 6 6 7 7 7 7 7 7 8 7 6 7 7 7 7 7 7 6 6 5 5 4 4 4 4 3 2 2 1 1 1 2 2 2 2 1 2 2 2 1
4 5 5 6 6 6 7 7 7 8 8 8 7 7 8 8 8 8 7 7 7 6 6 5 5 4 5 4 2 1 2 3 3 2 1 1 1 1 1 2 2 2 2 1
5 5 5 6 7 7 8 8 8 8 7 7 7 8 8 8 7 7 6 6 6 6 6 5 5 4 4 4 2 0 0 1 1 1 0 0 1 1 2 2 3 3 2 1
9 8 8 8 8 8 8 8 8 8 7 7 8 8 7 7 7 6 6 6 6 5 4 5 5 4 4 4 3 1 1 1 1 1 1 1 1 2 2 3 3 3 3 3
10 9 9 9 9 9 8 8 8 8 7 8 7 7 7 7 6 6 6 6 5 4 4 4 3 3 3 3 3 2 2 2 1 2 2 2 2 3 3 3 4 4 4 3
9 9 9 9 9 8 8 7 7 7 7 7 6 7 6 6 6 5 5 5 6 5 4 3 3 3 4 4 3 2 2 2 1 1 2 2 3 3 4 4 4 4 4 4
7 7 8 7 7 7 7 6 6 7 7 7 7 7 6 6 5 6 6 5 5 6 4 4 5 6 6 5 3 2 2 2 2 2 3 3 3 4 4 4 4 4 4 4
6 6 5 6 6 6 6 6 6 5 6 6 6 5 5 4 3 3 4 4 5 6 4 4 4 5 6 4 4 3 3 3 2 3 3 3 4 4 4 4 4 4 4 5
6 6 6 6 5 6 6 6 5 4 4 4 4 4 3 3 4 4 4 5 5 4 4 3 2 3 4 4 4 3 3 3 3 4 4 4 4 4 4 4 4 5 5 6
6 6 6 6 5 4 3 3 2 3 3 3 4 4 3 3 3 3 3 2 2 2 2 1 1 3 3 4 4 4 4 4 5 5 5 5 5 5 5 5 5 5 5 5
4 3 3 3 3 2 3 3 3 3 3 3 3 3 3 2 2 1 1 2 2 1 2 2 2 2 2 3 3 3 3 3 4 4 5 4 5 5 5 5 7 5 6 6
3 2 2 3 4 4 4 4 4 4 5 5 4 4 4 3 2 2 3 2 2 3 3 3 3 3 3 3 3 3 3 4 4 4 4 4 4 4 5 6 5 5 5 6
Wind_Direction
246 209 195 236 264 273 267 259 260 263 210 181 211 206 177 163 165 170 173 176 171 167 168 170 170 169 172 173 171 171 172 175 172 173 172 176 175 174 177 187 199 193 199 206
251 238 217 220 245 257 255 252 252 242 206 169 199 199 176 169 173 175 178 180 178 172 171 172 173 174 175 173 171 169 174 176 170 173 175 177 178 180 182 193 205 195 201 216
264 247 242 239 232 242 247 247 251 253 235 155 173 176 170 174 180 183 183 182 182 178 175 174 174 173 174 173 169 171 176 177 173 177 179 180 186 185 188 194 200 199 207 221
260 270 259 265 267 248 252 268 269 250 172 141 163 186 176 176 182 187 185 184 181 181 177 177 175 172 173 173 172 176 180 182 178 181 184 182 188 190 190 193 196 200 212 223
252 248 259 275 292 291 266 284 296 260 140 107 138 190 157 152 168 183 187 181 177 181 181 176 176 174 174 178 178 182 185 186 183 183 185 185 190 191 188 190 198 205 212 220
249 249 247 271 315 321 294 244 317 36 70 92 148 182 136 133 175 183 186 177 175 180 181 175 174 171 176 184 183 188 188 187 184 182 185 188 189 187 187 189 201 214 222 218
247 250 240 342 347 336 298 283 10 32 43 40 72 63 84 110 127 166 168 168 167 171 172 169 168 168 178 185 187 186 183 182 182 181 184 185 183 180 184 193 205 216 228 226
246 250 243 29 26 15 300 333 19 34 30 47 57 77 75 75 86 118 148 162 163 156 153 155 161 166 176 182 177 174 177 178 178 177 189 190 180 182 190 199 208 215 225 237
208 263 52 62 88 313 315 349 26 45 30 38 61 66 77 74 58 73 142 154 157 152 149 153 161 169 178 177 166 167 170 170 171 176 186 182 180 188 195 202 218 226 223 225
112 89 16 15 14 339 330 356 16 41 45 40 55 65 67 72 62 57 61 121 147 152 151 150 153 165 171 164 162 167 172 172 171 174 185 186 186 193 203 209 216 226 230 229
61 41 17 22 357 335 346 356 7 43 50 53 61 66 72 78 77 78 90 93 106 121 133 140 145 155 159 153 158 167 173 173 177 187 194 192 193 205 210 212 209 213 231 237
89 59 102 72 19 351 346 3 33 48 51 50 58 66 68 70 68 68 76 84 92 105 118 126 132 138 149 153 157 166 172 177 186 190 191 195 196 204 209 207 173 177 185 207
34 29 150 106 74 42 40 38 46 54 61 59 58 61 71 75 75 72 71 77 83 90 98 103 107 109 117 126 138 151 164 169 189 199 191 193 191 195 200 198 210 225 231 230
32 43 55 64 57 55 59 57 55 54 58 60 60 63 70 78 77 76 77 78 82 83 89 98 104 105 103 105 110 125 148 148 175 193 175 196 204 209 214 208 202 217 229 230
39 54 76 76 65 59 61 66 66 65 63 66 68 67 73 82 84 82 80 83 87 88 88 96 102 101 105 117 118 127 153 149 157 167 182 210 229 232 238 238 229 219 226 217
46 56 73 78 72 65 62 64 65 66 66 65 66 67 71 76 78 79 78 78 81 80 74 75 76 81 95 108 121 136 138 136 148 186 215 230 242 251 262 268 274 284 278 262
54 58 66 73 74 70 68 65 64 64 64 65 70 74 75 75 74 75 77 77 78 74 71 70 65 62 71 66 68 123 145 159 187 223 229 237 255 295 325 331 311 296 293 322
75 73 67 73 73 71 68 64 65 67 66 67 69 70 71 72 73 74 79 81 80 72 66 69 66 70 74 67 50 43 197 181 170 194 205 331 330 337 315 289 276 283 298 297
70 77 76 73 72 71 71 69 66 63 61 61 62 65 68 71 71 72 76 78 73 69 56 60 61 65 68 54 15 355 353 351 16 18 3 25 291 289 295 304 308 312 312 311
65 68 72 74 72 69 66 64 66 65 62 65 68 68 66 67 71 71 69 69 56 49 45 55 54 40 45 36 351 325 342 353 10 358 339 326 323 322 315 309 311 313 316 319
68 66 69 72 74 71 67 65 64 65 64 64 68 71 68 62 65 69 68 71 57 39 33 51 48 33 29 7 335 329 347 352 348 333 330 330 323 315 310 311 314 314 321 335
66 71 76 75 75 71 66 65 68 68 66 61 60 62 63 61 61 67 60 58 61 41 29 38 45 35 14 347 328 333 342 337 341 342 335 323 315 313 315 317 319 329 341 343
60 60 65 71 75 73 69 66 63 65 67 66 61 54 53 49 46 54 66 59 56 52 38 36 37 22 353 334 334 333 331 331 335 333 327 324 321 320 326 330 337 344 341 336
54 52 51 56 62 64 56 50 53 60 69 75 76 65 46 44 53 48 54 68 52 37 21 43 36 345 327 320 325 332 338 340 343 340 336 336 336 337 342 343 343 341 336 332
53 51 48 39 44 48 53 51 57 52 51 58 63 67 58 51 40 29 19 30 57 24 354 357 288 284 297 317 329 340 352 6 3 354 355 355 352 351 349 349 348 342 336 334
56 52 50 33 32 18 19 27 30 30 36 39 32 30 29 31 27 18 359 2 20 354 316 319 312 280 301 321 335 355 8 8 -0 355 355 351 349 348 346 345 341 338 333 335
62 52 33 23 28 27 23 22 24 19 21 26 18 10 360 352 353 356 355 356 357 345 347 348 339 331 333 344 358 9 8 4 2 357 354 352 352 347 344 342 342 341 338 338